Weather History for Storm Lake, IA

Change the Weather History Date:

Sunday, September 8, 2013

  Actual Average Record
Temperature  
Mean Temperature 74 °F -  
Max Temperature 80 °F 77 °F 89 °F (2002)
Min Temperature 68 °F 55 °F 44 °F (2012)
Cooling Degree Days 9    
Growing Degree Days 24 (Base 50)    
Moisture  
Dew Point 70 °F    
Average Humidity 92    
Maximum Humidity 100    
Minimum Humidity 74    
Precipitation  
Precipitation 0.00 in - - ()
Sea Level Pressure  
Sea Level Pressure 29.91 in    
Wind  
Wind Speed 9 mph (East)    
Max Wind Speed 17 mph    
Max Gust Speed 21 mph    
Visibility 5 miles    
Events      
Averages and records for this station are not official NWS values.
T = Trace of Precipitation, MM = Missing Value Source: NWS Daily Summary

Daily Weather History Graph

Daily Weather History Graph

Search for Another Location

Airport:

Trip Planner

Search our weather history database for the weather conditions in past years. The results will help you decide how hot, cold, wet, or windy it might be!

Date:

Astronomy

Sep. 08, 2013 Rise Set
Actual Time 6:53 AM CDT 7:42 PM CDT
Civil Twilight 6:25 AM CDT 8:11 PM CDT
Nautical Twilight 5:51 AM CDT 8:45 PM CDT
Astronomical Twilight 5:15 AM CDT 9:20 PM CDT
Moon 10:17 AM CDT (9/8) 9:12 PM CDT (9/8)
Length of Visible Light 13h 46m
Length of Day
12h 49m
Waxing Crescent, 11% of the Moon is Illuminated
Sep 8
Waxing Crescent
Sep 12
First Quarter
Sep 19
Full
Sep 26
Last Quarter
Oct 4
New

Hourly Weather History & Observations

Time (CDT) Temp. Heat Index Dew Point Humidity Pressure Visibility Wind Dir Wind Speed Gust Speed Precip Events Conditions
12:15 AM 73.4 °F - 71.6 °F 94% 29.95 in 7.0 mi NE 6.9 mph - N/A   Clear
12:35 AM 73.4 °F - 71.6 °F 94% 29.95 in 7.0 mi NE 8.1 mph - N/A   Clear
12:55 AM 73.4 °F - 73.4 °F 100% 29.96 in 6.0 mi NE 8.1 mph - N/A   Clear
1:15 AM 73.4 °F - 71.6 °F 94% 29.96 in 6.0 mi NE 9.2 mph - N/A   Clear
1:35 AM 73.4 °F - 71.6 °F 94% 29.96 in 6.0 mi NE 8.1 mph - N/A   Clear
1:55 AM 73.4 °F - 71.6 °F 94% 29.95 in 6.0 mi NE 8.1 mph - N/A   Clear
2:15 AM 73.4 °F - 71.6 °F 94% 29.95 in 5.0 mi NE 5.8 mph - N/A   Clear
2:35 AM 73.4 °F - 71.6 °F 94% 29.94 in 5.0 mi ENE 5.8 mph - N/A   Clear
2:55 AM 71.6 °F - 71.6 °F 100% 29.94 in 5.0 mi ENE 5.8 mph - N/A   Clear
3:15 AM 71.6 °F - 71.6 °F 100% 29.94 in 4.0 mi ENE 6.9 mph - N/A   Clear
3:35 AM 71.6 °F - 71.6 °F 100% 29.94 in 4.0 mi ENE 8.1 mph - N/A   Clear
3:55 AM 71.6 °F - 71.6 °F 100% 29.94 in 4.0 mi NE 6.9 mph - N/A   Clear
4:15 AM 69.8 °F - 69.8 °F 100% 29.94 in 3.0 mi ENE 4.6 mph - N/A   Clear
4:35 AM 71.6 °F - 71.6 °F 100% 29.94 in 3.0 mi ENE 8.1 mph - N/A   Clear
4:55 AM 69.8 °F - 69.8 °F 100% 29.94 in 3.0 mi ENE 6.9 mph - N/A   Clear
5:15 AM 69.8 °F - 69.8 °F 100% 29.94 in 4.0 mi ENE 6.9 mph - N/A   Clear
5:35 AM 69.8 °F - 69.8 °F 100% 29.94 in 4.0 mi ENE 9.2 mph - N/A   Clear
5:55 AM 69.8 °F - 69.8 °F 100% 29.94 in 5.0 mi ENE 8.1 mph - N/A   Clear
6:15 AM 69.8 °F - 69.8 °F 100% 29.94 in 5.0 mi ENE 10.4 mph - N/A   Clear
6:35 AM 69.8 °F - 69.8 °F 100% 29.94 in 6.0 mi ENE 9.2 mph - N/A   Clear
6:55 AM 69.8 °F - 68.0 °F 94% 29.94 in 5.0 mi ENE 11.5 mph - N/A   Clear
7:15 AM 68.0 °F - 68.0 °F 100% 29.94 in 4.0 mi ENE 12.7 mph - N/A   Clear
7:35 AM 68.0 °F - 68.0 °F 100% 29.94 in 4.0 mi ENE 12.7 mph - N/A   Clear
7:55 AM 68.0 °F - 68.0 °F 100% 29.94 in 4.0 mi East 12.7 mph - N/A   Clear
8:15 AM 69.8 °F - 69.8 °F 100% 29.95 in 4.0 mi East 9.2 mph - N/A   Partly Cloudy
8:35 AM 69.8 °F - 69.8 °F 100% 29.97 in 4.0 mi ENE 9.2 mph - N/A   Mostly Cloudy
8:55 AM 69.8 °F - 69.8 °F 100% 29.97 in 4.0 mi ENE 9.2 mph - N/A   Mostly Cloudy
9:15 AM 71.6 °F - 69.8 °F 94% 29.97 in 4.0 mi East 9.2 mph - N/A   Overcast
9:35 AM 71.6 °F - 69.8 °F 94% 29.97 in 5.0 mi East 10.4 mph 16.1 mph N/A   Overcast
9:55 AM 71.6 °F - 71.6 °F 100% 29.97 in 6.0 mi East 17.3 mph - N/A   Overcast
10:15 AM 71.6 °F - 69.8 °F 94% 29.97 in 5.0 mi East 13.8 mph 19.6 mph N/A   Overcast
10:35 AM 71.6 °F - 69.8 °F 94% 29.98 in - East 11.5 mph 18.4 mph N/A   Overcast
10:55 AM 71.6 °F - 69.8 °F 94% 29.97 in 3.0 mi East 12.7 mph 20.7 mph N/A   Overcast
11:15 AM 71.6 °F - 69.8 °F 94% 29.97 in 4.0 mi East 11.5 mph 18.4 mph N/A   Overcast
11:35 AM 73.4 °F - 69.8 °F 88% 29.95 in 5.0 mi ESE 13.8 mph - N/A   Overcast
11:55 AM 73.4 °F - 69.8 °F 88% 29.96 in 6.0 mi East 11.5 mph 18.4 mph N/A   Overcast
12:35 PM 75.2 °F - 69.8 °F 83% 29.95 in 7.0 mi ESE 9.2 mph - N/A   Overcast
12:55 PM 77.0 °F - 69.8 °F 78% 29.94 in 7.0 mi East 10.4 mph - N/A   Overcast
1:15 PM 77.0 °F - 69.8 °F 78% 29.94 in 7.0 mi East 12.7 mph - N/A   Overcast
1:35 PM 77.0 °F - 71.6 °F 83% 29.93 in 7.0 mi East 12.7 mph - N/A   Overcast
1:55 PM 77.0 °F - 69.8 °F 78% 29.93 in 7.0 mi East 11.5 mph 19.6 mph N/A   Overcast
2:15 PM 77.0 °F - 69.8 °F 78% 29.92 in 7.0 mi East 9.2 mph - N/A   Overcast
2:35 PM 77.0 °F - 69.8 °F 78% 29.91 in 7.0 mi ESE 8.1 mph 15.0 mph N/A   Mostly Cloudy
2:55 PM 78.8 °F - 71.6 °F 78% 29.91 in 7.0 mi ESE 10.4 mph 17.3 mph N/A   Scattered Clouds
3:15 PM 78.8 °F - 71.6 °F 78% 29.90 in 8.0 mi East 11.5 mph - N/A   Scattered Clouds
3:35 PM 78.8 °F - 71.6 °F 78% 29.90 in 7.0 mi East 13.8 mph - N/A   Scattered Clouds
3:55 PM 80.6 °F 84.6 °F 71.6 °F 74% 29.89 in 8.0 mi East 10.4 mph 17.3 mph N/A   Partly Cloudy
4:15 PM 80.6 °F 84.6 °F 71.6 °F 74% 29.88 in 8.0 mi East 11.5 mph 18.4 mph N/A   Scattered Clouds
4:35 PM 80.6 °F 84.6 °F 71.6 °F 74% 29.88 in 7.0 mi East 11.5 mph - N/A   Scattered Clouds
4:55 PM 78.8 °F - 71.6 °F 78% 29.87 in 8.0 mi East 10.4 mph 18.4 mph N/A   Partly Cloudy
5:15 PM 78.8 °F - 71.6 °F 78% 29.87 in 7.0 mi East 10.4 mph 17.3 mph N/A   Scattered Clouds
5:35 PM 78.8 °F - 71.6 °F 78% 29.87 in 7.0 mi East 11.5 mph - N/A   Partly Cloudy
5:55 PM 77.0 °F - 71.6 °F 83% 29.86 in 7.0 mi East 11.5 mph - N/A   Clear
6:15 PM 77.0 °F - 71.6 °F 83% 29.86 in 7.0 mi East 9.2 mph - N/A   Clear
6:35 PM 77.0 °F - 69.8 °F 78% 29.85 in 7.0 mi ESE 11.5 mph 17.3 mph N/A   Clear
6:55 PM 75.2 °F - 69.8 °F 83% 29.85 in 7.0 mi East 9.2 mph 15.0 mph N/A   Clear
7:15 PM 75.2 °F - 69.8 °F 83% 29.85 in 6.0 mi East 9.2 mph - N/A   Haze
7:35 PM 73.4 °F - 69.8 °F 88% 29.84 in 6.0 mi East 8.1 mph - N/A   Clear
7:55 PM 71.6 °F - 69.8 °F 94% 29.84 in 5.0 mi East 8.1 mph - N/A   Clear
8:15 PM 71.6 °F - 69.8 °F 94% 29.84 in 6.0 mi East 6.9 mph - N/A   Clear
8:35 PM 71.6 °F - 69.8 °F 94% 29.85 in 6.0 mi East 8.1 mph - N/A   Clear
8:55 PM 71.6 °F - 69.8 °F 94% 29.85 in 5.0 mi East 8.1 mph - N/A   Clear
9:15 PM 71.6 °F - 69.8 °F 94% 29.85 in 5.0 mi East 6.9 mph - N/A   Clear
9:35 PM 69.8 °F - 69.8 °F 100% 29.85 in 4.0 mi East 4.6 mph - N/A   Clear
9:55 PM 69.8 °F - 69.8 °F 100% 29.85 in 4.0 mi East 6.9 mph - N/A   Clear
10:15 PM 69.8 °F - 69.8 °F 100% 29.85 in 4.0 mi East 8.1 mph - N/A   Clear
10:35 PM 69.8 °F - 69.8 °F 100% 29.84 in 4.0 mi East 10.4 mph - N/A   Clear
10:55 PM 69.8 °F - 69.8 °F 100% 29.84 in 4.0 mi East 9.2 mph - N/A   Clear
11:15 PM 69.8 °F - 69.8 °F 100% 29.84 in 3.0 mi East 9.2 mph - N/A   Clear
11:35 PM 69.8 °F - 69.8 °F 100% 29.84 in 3.0 mi ESE 9.2 mph - N/A   Clear
11:55 PM 68.0 °F - 68.0 °F 100% 29.84 in 3.0 mi East 10.4 mph - N/A   Partly Cloudy